Regional Weather Roundup
Issued by NWS Boston, MA

Current Version | Previous Version | Text Only | Print | Product List | Glossary On
Versions: 1 2 3 4 5 6 7 8 9 10 11 12 13 14 15 16 17 18 19 20 21 22 23 24 25 26 27
000
ASUS41 KBOX 201310
RWRBOX

REGIONAL WEATHER ROUNDUP
NATIONAL WEATHER SERVICE TAUNTON MA
900 AM EDT SUN APR 20 2014

NOTE:  "FAIR" INDICATES FEW OR NO CLOUDS BELOW 12,000 FEET WITH NO
SIGNIFICANT WEATHER AND/OR OBSTRUCTIONS TO VISIBILITY.  THE FOLLOWING
OBSERVATION LOCATIONS DO NOT REPORT PRESENT WEATHER...PROVINCETOWN...
SMITHFIELD...BLOCK ISLAND...KEENE...AND OXFORD.

MAZALL-201400-
EASTERN MASSACHUSETTS

CITY           SKY/WX    TMP DP  RH WIND       PRES   REMARKS
BOSTON         MOSUNNY   46  26  45 NE14      30.52S
BEVERLY        MOSUNNY   46  23  40 NE9       30.52R
LAWRENCE       SUNNY     46  18  32 E7        30.53S
BEDFORD        SUNNY     45  21  38 NE9       30.51S
BLUE HILL        N/A     44  23  43 E14G21    30.48S
NORWOOD        SUNNY     46  24  42 NE13      30.51S
MARSHFIELD       N/A    N/A N/A N/A MISG        N/A
PLYMOUTH       SUNNY     45  29  53 NE14G22   30.51R
TAUNTON        SUNNY     48  24  39 E10       30.50S
NEW BEDFORD    SUNNY     48  27  44 NE12G22   30.48F
$$

MAZALL-201400-
CAPE COD AND THE ISLANDS

CITY           SKY/WX    TMP DP  RH WIND       PRES   REMARKS
FALMOUTH       SUNNY     46  27  46 E16G24    30.49S
HYANNIS        SUNNY     48  27  44 NE10      30.47F
CHATHAM        MOSUNNY   45  30  55 NE12      30.50R
PROVINCETOWN   SUNNY     45  32  61 MISG      30.52R
NANTUCKET      MOSUNNY   46  28  49 NE21      30.47F
MARTHAS VNYRD  MOSUNNY   48  30  49 NE16G24   30.48S
$$

MAZALL-201400-
CENTRAL AND WESTERN MASSACHUSETTS

CITY           SKY/WX    TMP DP  RH WIND       PRES   REMARKS
WORCESTER      SUNNY     43  16  33 NE8       30.48S
FITCHBURG      SUNNY     46  15  28 NE10      30.52R
ORANGE         SUNNY     42  25  50 CALM      30.50F
SPRINGFIELD    SUNNY     45  25  45 NE3       30.50S
WESTFIELD      SUNNY     45  27  49 NW5       30.51R
NORTH ADAMS    SUNNY     40  26  57 CALM      30.50S
PITTSFIELD     SUNNY     42  23  46 NE6       30.47R
$$

RIZALL-201400-
RHODE ISLAND

CITY           SKY/WX    TMP DP  RH WIND       PRES   REMARKS
PROVIDENCE     MOSUNNY   48  20  32 NE15      30.51R
NEWPORT        SUNNY     47  22  37 NE12      30.49S
BLOCK ISLAND   MOSUNNY   45  30  57 NE8G17    30.48S
SMITHFIELD     SUNNY     45  19  36 E7G16     30.50S
WESTERLY       SUNNY     47  22  37 NE10G17   30.49F
$$

CTZALL-201400-
CONNECTICUT

CITY           SKY/WX    TMP DP  RH WIND       PRES   REMARKS
BRADLEY INTL   MOSUNNY   47  27  45 N8        30.50S
HARTFORD       MOSUNNY   46  26  45 N6        30.51S
BRIDGEPORT     MOSUNNY   50  24  36 E14       30.50R
DANBURY        MOSUNNY   46  23  40 NE9       30.50S
GROTON         SUNNY     49  23  36 E13       30.48F
NEW HAVEN      PTSUNNY   50  23  34 E8        30.49S
CHESTER        FAIR      46  23  39 NE6       30.48F
MERIDEN        MOSUNNY   48  25  40 VRB5      30.50S
WILLIMANTIC    MOSUNNY   47  20  34 NE12      30.49F
OXFORD         SUNNY     45  21  39 E7        30.51R
$$

MEZ002-015-021-024-NHZ003-005-008-011-012-014-VTZ005-008-201400-
NORTHERN NEW ENGLAND

CITY           SKY/WX    TMP DP  RH WIND       PRES   REMARKS
PORTLAND ME    SUNNY     44  18  35 NE10      30.52R
BANGOR ME      SUNNY     43  19  38 N6        30.52R
CONCORD NH     SUNNY     42  25  50 CALM      30.51S
MANCHESTER NH  MOSUNNY   44  19  36 E7        30.50S
NASHUA NH      SUNNY     44  18  35 CALM      30.53R
PORTSMOUTH NH  MOSUNNY   46  16  29 E8        30.51R
JAFFREY NH     SUNNY     43  19  38 CALM      30.48F
KEENE NH       SUNNY     37  23  56 N3        30.52F
BURLINGTON VT  SUNNY     40  25  55 CALM      30.51S
MT. WASHINGTON MOSUNNY   28  -6  22 NW17        N/A  WCI  16
$$

NYZ052-076-201400-
EASTERN NEW YORK

CITY           SKY/WX    TMP DP  RH WIND       PRES   REMARKS
ALBANY         MOSUNNY   44  28  53 VRB3      30.52R
NEW YORK CITY  PTSUNNY   48  29  47 NE10      30.48S
$$

ANZALL-201400-
MARINE OBSERVATIONS

STATION/POSITION TIME  TEMP    WIND        PRES    VSBY  WAVE
                       AIR SEA DIR/SP/G                  HT/PER
                 (UTC) (F)     (DEG/KT/KT) (MB)    (MI)  (FT/S)
BOSTON BUOY      1250   41 40   30/  6/  8 1034.0R         3/ 9
BUZZARDS BAY     1200           30/ 14/ 16 1032.8R
NANTUCKET SOUND  1250   43 43   50/ 14/ 16 1032.2S         1/ 3
MASS BAY-STELLWA 1204   42 41   20/ 10/ 12 1031.9R  1 7/8  4/11
ISLE OF SHOALS   1200   40      30/ 11/ 12 1032.5R
S OF BLOCK IS    1225      41                N/A           3/ 8
$$

......................KEY.........................
  SKY/WX - SKY CONDITION/PRESENT WEATHER
  TMP    - TEMPERATURE IN FAHRENHEIT
  DWPT   - DEWPOINT IN FAHRENHEIT
  RH     - RELATIVE HUMIDITY IN PERCENT
  WIND   - DIRECTION AND SPEED IN MPH
  PRES   - MEAN SEA LEVEL PRESSURE IN INCHES OF HG
  WCI    - WIND CHILL INDEX
  VSB    - VISIBILITY IN MILES
  HX     - HEAT INDEX
  TC     - TEMPERATURE IN CELSIUS
  VRB    - VARIABLE WIND DIRECTION
  N/A    - NOT AVAILABLE



USA.gov is the U.S. government's official web portal to all federal, state and local government web resources and services.